This is the latest recevied weather packets stored in our database for station/object WB4ZUT. If no packets are shown the sender has not sent any weather packets the latest 1 day(s).
| Time | Temp. | Humidity | Pressure | Rain* | Wind** | Luminosity | Snow |
|---|---|---|---|---|---|---|---|
| 1778079419 | 12.78° C | 82% | 1014.8 hPa | 0 mm | - | 241 W/m² | - |
| 1778078207 | 13.33° C | 82% | 1014.1 hPa | 0 mm | - | 397 W/m² | - |
| 1778077905 | 12.78° C | 84% | 1014.2 hPa | 0 mm | - | 636 W/m² | - |
| 1778077301 | 12.78° C | 85% | 1014.2 hPa | 0 mm | - | 343 W/m² | - |
| 1778076091 | 11.67° C | 88% | 1013.8 hPa | 0 mm | - | 379 W/m² | - |
| 1778075788 | 11.67° C | 88% | 1014 hPa | 0 mm | - | 326 W/m² | - |
| 1778075484 | 11.11° C | 89% | 1013.7 hPa | 0 mm | - | 382 W/m² | - |
| 1778074876 | 10.56° C | 93% | 1013.5 hPa | 0 mm | - | 242 W/m² | - |
| 1778074574 | 10° C | 94% | 1013.4 hPa | 0 mm | - | 257 W/m² | - |
| 1778073665 | 9.44° C | 97% | 1013.5 hPa | 0 mm | - | 150 W/m² | - |
| 1778072453 | 9.44° C | 99% | 1013.6 hPa | 0 mm | - | 185 W/m² | - |
| 1778072151 | 8.89° C | 99% | 1013.5 hPa | 0 mm | - | 116 W/m² | - |
| 1778071546 | 9.44° C | 99% | 1013.6 hPa | 0 mm | - | 152 W/m² | - |
| 1778071244 | 8.89° C | 99% | 1013.4 hPa | 0 mm | - | 150 W/m² | - |
| 1778067009 | 7.78° C | 99% | 1012.7 hPa | 0 mm | - | 29 W/m² | - |
| 1778066101 | 7.78° C | 99% | 1012.4 hPa | 0 mm | - | 12 W/m² | - |
| 1778065797 | 7.78° C | 99% | 1012.5 hPa | 0 mm | - | 5 W/m² | - |
| 1778064888 | 7.78° C | 99% | 1012.6 hPa | 0 mm | - | 0 W/m² | - |
| 1778063375 | 7.78° C | 99% | 1011.5 hPa | 0 mm | - | 0 W/m² | - |
| 1778062770 | 7.22° C | 99% | 1011.5 hPa | 0 mm | - | 0 W/m² | - |
| 1778062466 | 7.22° C | 99% | 1011.6 hPa | 0 mm | - | 0 W/m² | - |
| 1778062164 | 7.22° C | 99% | 1011.4 hPa | 0 mm | - | 0 W/m² | - |
| 1778061862 | 7.22° C | 99% | 1011.3 hPa | 0 mm | - | 0 W/m² | - |
| 1778061560 | 7.22° C | 99% | 1011.2 hPa | 0 mm | - | 0 W/m² | - |
| 1778060954 | 7.22° C | 99% | 1011 hPa | 0 mm | - | 0 W/m² | - |
* Rain latest hour (hover to see other rain measurements)
** Current wind speed in m/s (hover to see current wind gust speed)